Torna al catalogo

STARLINK-35244

AttivoComunicazioniVLEO
NORAD 65829·PAYLOAD·🇺🇸 United States

Lanciato Sep 29, 2025 da Vandenberg Space Force Base

Loading…

Prossimi Passaggi (prossime 24 ore)

TLE

AggiornatoSource: CelesTrak SupGP

Epoca: Sep 14, 2026, 15:15 UTC

1 65829C 25221G   26257.63590278  .00008132  00000+0  26161-3 0  2573
2 65829  53.1571 292.2894 0001173  79.2972 159.4877 15.31685595    18

Traccia STARLINK-35244 in tempo reale con AllMySat

Download on the App Store